Time,TemperatureF,DewpointF,PressureIn,WindDirection,WindDirectionDegrees,WindSpeedMPH,WindSpeedGustMPH,Humidity,HourlyPrecipIn,Conditions,Clouds,dailyrainin,SolarRadiationWatts/m^2,SoftwareType,DateUTC
2013-10-28 00:01:00,38.0,30.0,-100.00,West,281,5.0,13.0,73,0.00,,,0.05,0.000000,,2013-10-28 07:01:00,
2013-10-28 00:42:00,37.0,27.0,-100.00,WNW,293,5.0,12.0,68,0.00,,,0.05,0.000000,,2013-10-28 07:42:00,
2013-10-28 00:52:00,37.0,27.0,-100.00,WNW,293,5.0,12.0,68,0.00,,,0.05,0.000000,,2013-10-28 07:52:00,
2013-10-28 01:02:00,37.0,27.0,-100.00,WNW,293,5.0,12.0,68,0.00,,,0.05,0.000000,,2013-10-28 08:02:00,
2013-10-28 01:42:00,34.0,25.0,-100.00,West,271,3.0,12.0,70,0.00,,,0.05,0.000000,,2013-10-28 08:42:00,
2013-10-28 01:52:00,34.0,25.0,-100.00,West,271,3.0,12.0,70,0.00,,,0.05,0.000000,,2013-10-28 08:52:00,
2013-10-28 02:02:00,34.0,25.0,-100.00,West,271,3.0,12.0,70,0.00,,,0.05,0.000000,,2013-10-28 09:02:00,
2013-10-28 02:43:00,30.0,23.0,-100.00,WSW,247,0.0,7.0,74,0.00,,,0.03,0.000000,,2013-10-28 09:43:00,
2013-10-28 02:53:00,30.0,23.0,-100.00,WSW,247,0.0,7.0,74,0.00,,,0.03,0.000000,,2013-10-28 09:53:00,
2013-10-28 03:03:00,30.0,23.0,-100.00,WSW,247,0.0,7.0,74,0.00,,,0.03,0.000000,,2013-10-28 10:03:00,
2013-10-28 03:43:00,31.0,22.0,-100.00,West,277,3.0,7.0,68,0.00,,,0.03,0.000000,,2013-10-28 10:43:00,
2013-10-28 03:53:00,31.0,22.0,-100.00,West,277,3.0,7.0,68,0.00,,,0.03,0.000000,,2013-10-28 10:53:00,
2013-10-28 04:03:00,31.0,22.0,-100.00,West,277,3.0,7.0,68,0.00,,,0.03,0.000000,,2013-10-28 11:03:00,
2013-10-28 04:42:00,31.0,20.0,-100.00,West,281,4.0,10.0,63,0.00,,,0.03,0.000000,,2013-10-28 11:42:00,
2013-10-28 04:52:00,31.0,20.0,-100.00,West,281,4.0,10.0,63,0.00,,,0.03,0.000000,,2013-10-28 11:52:00,
2013-10-28 05:01:00,31.0,20.0,-100.00,West,281,4.0,10.0,63,0.00,,,0.03,0.000000,,2013-10-28 12:01:00,
2013-10-28 05:42:00,31.0,18.0,-100.00,WNW,293,3.0,15.0,57,0.00,,,0.03,0.000000,,2013-10-28 12:42:00,
2013-10-28 05:52:00,31.0,18.0,-100.00,WNW,293,3.0,15.0,57,0.00,,,0.03,0.000000,,2013-10-28 12:52:00,
2013-10-28 06:01:00,31.0,18.0,-100.00,WNW,293,3.0,15.0,57,0.00,,,0.03,0.000000,,2013-10-28 13:01:00,
2013-10-28 06:42:00,30.0,16.0,-100.00,SSE,161,2.0,7.0,56,0.00,,,0.03,0.000000,,2013-10-28 13:42:00,
2013-10-28 06:52:00,30.0,16.0,-100.00,SSE,161,2.0,7.0,56,0.00,,,0.03,0.000000,,2013-10-28 13:52:00,
2013-10-28 07:02:00,30.0,16.0,-100.00,SSE,161,2.0,7.0,56,0.00,,,0.03,0.000000,,2013-10-28 14:02:00,
2013-10-28 07:42:00,31.0,17.0,-100.00,WNW,299,2.0,14.0,56,0.00,,,-99.99,0.000000,,2013-10-28 14:42:00,
2013-10-28 07:52:00,31.0,17.0,-100.00,WNW,299,2.0,14.0,56,0.00,,,-99.99,0.000000,,2013-10-28 14:52:00,
2013-10-28 08:02:00,31.0,17.0,-100.00,WNW,299,2.0,14.0,56,0.00,,,-99.99,0.000000,,2013-10-28 15:02:00,
2013-10-28 08:43:00,31.0,19.0,-100.00,WNW,285,5.0,13.0,61,0.00,,,0.01,4.000000,,2013-10-28 15:43:00,
2013-10-28 08:53:00,31.0,19.0,-100.00,WNW,285,5.0,13.0,61,0.00,,,0.01,4.000000,,2013-10-28 15:53:00,
2013-10-28 09:03:00,31.0,19.0,-100.00,WNW,285,5.0,13.0,61,0.00,,,0.01,4.000000,,2013-10-28 16:03:00,
2013-10-28 09:43:00,36.0,20.0,-100.00,NW,319,6.0,16.0,52,0.00,,,0.01,90.000000,,2013-10-28 16:43:00,
2013-10-28 09:53:00,36.0,20.0,-100.00,NW,319,6.0,16.0,52,0.00,,,0.01,90.000000,,2013-10-28 16:53:00,
2013-10-28 10:02:00,36.0,20.0,-100.00,NW,319,6.0,16.0,52,0.00,,,0.01,90.000000,,2013-10-28 17:02:00,
2013-10-28 10:42:00,39.0,20.0,-100.00,NW,318,7.0,15.0,47,0.00,,,0.01,255.000000,,2013-10-28 17:42:00,
2013-10-28 10:52:00,39.0,20.0,-100.00,NW,318,7.0,15.0,47,0.00,,,0.01,255.000000,,2013-10-28 17:52:00,
2013-10-28 11:02:00,39.0,20.0,-100.00,NW,318,7.0,15.0,47,0.00,,,0.01,255.000000,,2013-10-28 18:02:00,
2013-10-28 11:42:00,40.0,19.0,-100.00,NW,318,7.0,17.0,42,0.00,,,0.01,376.000000,,2013-10-28 18:42:00,
2013-10-28 11:52:00,40.0,19.0,-100.00,NW,318,7.0,17.0,42,0.00,,,0.01,376.000000,,2013-10-28 18:52:00,
2013-10-28 12:01:00,40.0,19.0,-100.00,NW,318,7.0,17.0,42,0.00,,,0.01,376.000000,,2013-10-28 19:01:00,
2013-10-28 12:42:00,41.0,18.0,-100.00,NNW,328,7.0,19.0,39,0.00,,,0.01,459.000000,,2013-10-28 19:42:00,
2013-10-28 12:52:00,41.0,18.0,-100.00,NNW,328,7.0,19.0,39,0.00,,,0.01,459.000000,,2013-10-28 19:52:00,
2013-10-28 13:02:00,41.0,18.0,-100.00,NNW,328,7.0,19.0,39,0.00,,,0.01,459.000000,,2013-10-28 20:02:00,
2013-10-28 13:42:00,42.0,18.0,-100.00,NW,310,8.0,18.0,38,0.00,,,0.01,493.000000,,2013-10-28 20:42:00,
2013-10-28 13:52:00,42.0,18.0,-100.00,NW,310,8.0,18.0,38,0.00,,,0.01,493.000000,,2013-10-28 20:52:00,
2013-10-28 14:02:00,42.0,18.0,-100.00,NW,310,8.0,18.0,38,0.00,,,0.01,493.000000,,2013-10-28 21:02:00,
2013-10-28 14:43:00,43.0,19.0,-100.00,NW,310,9.0,18.0,37,0.00,,,0.01,469.000000,,2013-10-28 21:43:00,
2013-10-28 14:54:00,43.0,19.0,-100.00,NW,310,9.0,18.0,37,0.00,,,0.01,469.000000,,2013-10-28 21:54:00,
2013-10-28 15:03:00,43.0,19.0,-100.00,NW,310,9.0,18.0,37,0.00,,,0.01,469.000000,,2013-10-28 22:03:00,
2013-10-28 15:43:00,44.0,18.0,-100.00,WNW,303,8.0,18.0,35,0.00,,,0.01,192.000000,,2013-10-28 22:43:00,
2013-10-28 15:53:00,44.0,18.0,-100.00,WNW,303,8.0,18.0,35,0.00,,,0.01,192.000000,,2013-10-28 22:53:00,
2013-10-28 16:02:00,44.0,18.0,-100.00,WNW,303,8.0,18.0,35,0.00,,,0.01,192.000000,,2013-10-28 23:02:00,
2013-10-28 16:43:00,41.0,21.0,-100.00,WSW,238,5.0,22.0,45,0.00,,,0.01,189.000000,,2013-10-28 23:43:00,
2013-10-28 16:52:00,41.0,21.0,-100.00,WSW,238,5.0,22.0,45,0.00,,,0.01,189.000000,,2013-10-28 23:52:00,
2013-10-28 17:01:00,41.0,21.0,-100.00,WSW,238,5.0,22.0,45,0.00,,,0.01,189.000000,,2013-10-29 00:01:00,
2013-10-28 17:42:00,37.0,21.0,-100.00,SSW,205,6.0,13.0,52,0.00,,,0.00,55.000000,,2013-10-29 00:42:00,
2013-10-28 17:52:00,37.0,21.0,-100.00,SSW,205,6.0,13.0,52,0.00,,,0.00,55.000000,,2013-10-29 00:52:00,
2013-10-28 18:01:00,37.0,21.0,-100.00,SSW,205,6.0,13.0,52,0.00,,,0.00,55.000000,,2013-10-29 01:01:00,
2013-10-28 19:44:00,30.0,19.0,-100.00,SSW,199,1.0,3.0,64,-99.99,,,0.00,0.000000,,2013-10-29 02:44:00,
2013-10-28 19:54:00,30.0,19.0,-100.00,SSW,199,1.0,3.0,64,-99.99,,,0.00,0.000000,,2013-10-29 02:54:00,
2013-10-28 20:03:00,30.0,19.0,-100.00,SSW,199,1.0,3.0,64,-99.99,,,0.00,0.000000,,2013-10-29 03:03:00,
2013-10-28 20:40:00,-999.0,-99.9,-100.00,SSE,148,1.0,4.0,74,0.00,,,0.00,0.000000,,2013-10-29 03:40:00,
2013-10-28 20:48:00,27.0,20.0,-100.00,SSE,148,1.0,4.0,74,0.00,,,0.00,0.000000,,2013-10-29 03:48:00,
2013-10-28 20:55:00,27.0,20.0,-100.00,SSE,148,1.0,4.0,74,0.00,,,0.00,0.000000,,2013-10-29 03:55:00,
2013-10-28 21:03:00,27.0,20.0,-100.00,SSE,148,1.0,4.0,74,0.00,,,0.00,0.000000,,2013-10-29 04:03:00,
2013-10-28 21:44:00,26.0,19.0,-100.00,SE,126,2.0,4.0,76,0.00,,,0.00,0.000000,,2013-10-29 04:44:00,
2013-10-28 22:06:00,25.0,19.0,-100.00,SE,133,2.0,4.0,78,0.00,,,0.00,0.000000,,2013-10-29 05:06:00,
2013-10-28 22:45:00,25.0,19.0,-100.00,SE,133,2.0,4.0,78,0.00,,,0.00,0.000000,,2013-10-29 05:45:00,
2013-10-28 22:52:00,25.0,19.0,-100.00,SE,133,2.0,4.0,78,0.00,,,0.00,0.000000,,2013-10-29 05:52:00,
2013-10-28 23:43:00,26.0,19.0,-100.00,SSW,202,2.0,5.0,75,0.00,,,0.00,0.000000,,2013-10-29 06:43:00,
2013-10-28 23:52:00,26.0,19.0,-100.00,SSW,202,2.0,5.0,75,0.00,,,0.00,0.000000,,2013-10-29 06:52:00,